Track IRIDIUM 100 now! 10-day predictions IRIDIUM 100 is classified as:
1 42956U 17061B 26249.79391731 .00000022 00000-0 92951-6 0 9990 2 42956 86.4026 351.0813 0002155 94.5898 265.5544 14.34216728466477